Location: Fayetteville
(35.0530°N, 78.8790°W)
Time: 09:52:28
(UTC-05:00)

Hubble Space Telescope - Visible Passes

Search period start: 28 November 2021 00:00
Search period end: 08 December 2021 00:00
Orbit: 535 x 538 km, 28.5° (Epoch: 27 November)

Date Brightness Start Highest point End Pass type
(mag) Time Alt. Az. Time Alt. Az. Time Alt. Az.
28 Nov 3.4 04:21:25 17° SE 04:21:25 17° SE 04:22:39 10° ESE visible
28 Nov 2.1 05:56:43 13° WSW 05:59:57 32° S 06:03:38 10° ESE visible
29 Nov 3.8 04:11:00 13° ESE 04:11:00 13° ESE 04:11:32 10° ESE visible
29 Nov 2.1 05:46:19 17° WSW 05:48:45 31° S 05:52:24 10° ESE visible
30 Nov 2.1 05:35:52 22° SW 05:37:33 30° S 05:41:09 10° SE visible
01 Dec 2.1 05:25:24 25° SSW 05:26:20 28° S 05:29:51 10° SE visible
02 Dec 2.2 05:14:56 25° SSW 05:15:06 25° SSW 05:18:31 10° SE visible
03 Dec 2.6 05:04:28 22° S 05:04:28 22° S 05:07:08 10° SE visible
04 Dec 3.0 04:54:01 17° S 04:54:01 17° S 04:55:40 10° SSE visible
05 Dec 3.5 04:43:35 12° SSE 04:43:35 12° SSE 04:44:07 10° SSE visible
